{"data":{"norad_id":49305,"epoch":"2026-05-25T03:01:59.828160Z","epoch_age_seconds":74798,"freshness":"FRESH","line1":"1 49305U 21090AC  26145.12638690 -.00000159  00000+0 -46341-3 0  9993","line2":"2 49305  87.8944 294.3067 0001946  95.1356 264.9996 13.14501742224532","mean_motion":13.14501742,"eccentricity":0.0001946,"inclination_deg":87.8944,"raan_deg":294.3067,"arg_perigee_deg":95.1356,"mean_anomaly_deg":264.9996,"bstar":-0.00046341,"rev_number":22453,"period_min":109.54721123527,"perigee_km":1204.3185909604,"apogee_km":1207.2702570706,"semimajor_km":7583.9314240155,"source":"CELESTRAK","updated_at":"2026-05-25T13:38:22.525025Z"}}